1st Responders/1st Detectors/Storm Spotters Weather Summary for Whitley County, KY

Forecast Maps


Reg. NEXRAD Animation


National Fire Danger: Day 1 & 2 Map

Current NWS Watch/Warnings

SPC Convective Day 1 Outlook


Day 2 Outlook

(Click images to enlarge|Page will refresh every 5 minutes)
UK Ag. Weather Center Desktop Severe Weather Service[HERE]
Whitley County, KY Hazardous Weather Outlook Webcast
(9 AM to 9 PM Mon-Fri)
[Fast]
[Dial-up]


UKAWC 1st Detectors/1st Responders Precision Weather Forecast For WHITLEY County, Kentucky
(based on the NWS County Digital Forecast)

ISSUED AT 06:00 UTC ON THURSDAY DEC 01 2022
DAY THURSDAY
EDT 3HR 3A 4A 5A 6A 7A 8A 9A 10A 11A NOON 1P 2P 3P 4P 5P 6P 7P
MAX/MIN -- -- -- -- -- 18° -- -- -- -- -- -- -- -- -- -- 43°
TEMP 27° 25° 23° 22° 20° 18° 20° 23° 29° 31° 36° 38° 40° 43° 43° 40° 38°
SKY COVER 6% 12% 18% 20% 22% 24% 41% 47% 61% 63% 56% 37% 42% 36% 15% 11% 8%
Clouds
DEW PT 20° 18° 18° 18° 18° 18° 18° 18° 18° 18° 18° 20° 20° 20° 20° 20° 22°
RH 71% 74% 80% 84% 88% 95% 91% 77% 65% 57% 49% 46% 42% 41% 40% 46% 51%
POP 12HR -- -- -- -- -- 0% -- -- -- -- -- -- -- -- -- -- --
RAIN/SNOW (liq.equ) -- -- -- -- -- 0.00in -- -- -- -- -- 0.00in -- -- -- -- --
SNOWFALL -- -- -- -- -- 0in -- -- -- -- -- 0in -- -- -- -- --
WIND SPEED(MPH) 2 1 1 1 1 1 1 1 1 1 1 1 2 2 5 5 2
WIND Gust(MPH) 6 5 5 5 5 5 2 2 2 2 5 5 6 7 7 7 6
WIND DIR NW NW NW NW NW NW N N NE NE NE NE E E E E E
DEW Freeze Freeze Freeze Freeze Freeze Freeze Freeze Freeze -- -- -- -- -- -- -- -- --
HeatIndex 24 25 23 22 20 18 20 23 29 31 36 38 38 41 40 36 35
Rain -- -- -- -- -- -- -- -- -- -- -- -- -- -- -- -- --
Rain Showers -- -- -- -- -- -- -- -- -- -- -- -- -- -- -- -- --
WIND CHILL -- -- -- -- -- -- -- -- -- -- -- -- -- -- 40° 37° --
SPRAY COND
DRY COND
LIVESTOCK COLDSTRESS



DAY FRIDAY SATURDAY SUNDAY MONDAY TUESDAY WEDNESDAY
EDT 6HR 8P 9P 10P 11P MIDN 1A 2A 3A 4A 5A 6A 7A 8A 9A 10A 11A NOON 1P 2P 5P 8P 11P 2A 5A 8A 11A 2P 5P 8P 2A 8A 2P 8P 2A 8A 2P 8P 2A 8A 2P 8P 2A 8A 2P 8P
MAX/MIN -- -- -- -- -- -- -- -- -- -- -- -- 29° -- -- -- -- -- -- 56° -- -- -- -- 45° -- -- 56° -- -- 27° 49° -- -- 36° 56° -- -- 45° 58° -- -- 40° 50° --
TEMP 34° 34° 32° 31° 31° 31° 31° 31° 29° 29° 31° 31° 31° 34° 38° 43° 45° 49° 50° 54° 49° 47° 49° 50° 49° 52° 54° 54° 43° 32° 27° 47° 43° 41° 38° 52° 52° 50° 45° 56° 52° 47° 40° 49° 43°
SKY COVER 4% 8% 11% 15% 18% 22% 25% 29% 35% 41% 35% 30% 25% 30% 34% 38% 46% 53% 60% 75% 83% 82% 88% 92% 90% 85% 73% 51% 50% 63% 71% 68% 89% 93% 87% 89% 81% 92% 91% 87% 90% 89% 83% 70% 68%
Clouds
DEW PT 22° 22° 22° 22° 22° 22° 22° 22° 22° 22° 22° 22° 22° 25° 25° 27° 27° 25° 25° 31° 38° 43° 45° 49° 49° 49° 43° 36° 32° 29° 27° 31° 34° 38° 38° 45° 47° 49° 45° 52° 47° 45° 38° 40° 34°
RH 58% 60% 63% 66% 68% 68% 72% 72% 74% 75% 71% 71% 71% 66% 59% 52% 47% 40% 37% 41% 65% 88% 86% 92% 100% 93% 68% 50% 65% 85% 96% 55% 70% 88% 99% 79% 82% 93% 99% 86% 83% 92% 89% 71% 70%
POP 12HR 0% -- -- -- -- -- -- -- -- -- -- -- 2% -- -- -- -- -- -- -- 4% -- -- -- 83% -- -- -- 53% -- 6% -- 19% -- 34% -- 55% -- 62% -- 60% -- 47% -- 31%
RAIN/SNOW (liq.equ) 0.00in -- -- -- -- -- 0.00in -- -- -- -- -- 0.00in -- -- -- -- -- 0.00in -- 0.00in -- 0.01in -- 0.09in -- 0.04in -- 0.00in -- -- -- -- -- -- -- -- -- -- -- -- -- -- -- --
SNOWFALL 0in -- -- -- -- -- 0in -- -- -- -- -- 0in -- -- -- -- -- 0in -- 0in -- 0in -- 0in -- 0in -- 0in -- -- -- -- -- -- -- -- -- -- -- -- -- -- -- --
WIND SPEED(MPH) 2 2 1 1 2 2 2 2 2 2 2 2 5 6 6 7 7 8 9 9 8 9 9 9 7 9 8 7 5 1 1 2 2 1 1 6 6 6 2 7 6 5 2 7 6
WIND DIR E E SE SE SE SE SE SE SE SE SE SE SE SE S S S S S S S S S S SW W W NW N N NE S S S S S S S SW SW W NW NW NW NW
HeatIndex 32 31 32 31 27 27 27 27 26 26 27 27 26 29 34 38 45 49 50 54 49 47 49 50 49 52 54 54 41 32 27 47 42 41 38 52 52 50 45 56 52 47 38 49 40
Rain -- -- -- -- -- -- -- -- -- -- -- -- -- -- -- -- -- -- -- -- -- -- -- -- -- -- -- -- -- -- -- -- Slight Chance Chance Chance Chance Likely Likely Likely Likely Chance Chance Chance Slight Chance Slight Chance
Rain Showers -- -- -- -- -- -- -- -- -- -- -- -- -- -- -- -- -- -- -- -- -- Slight Chance Chance Definite Chance Chance -- -- -- -- -- -- -- -- -- -- -- -- -- -- -- -- -- -- --
WIND CHILL -- -- -- -- -- -- -- -- -- -- -- -- 26° 29° 34° 39° 41° -- -- -- -- -- -- -- -- -- -- -- 40° -- -- -- -- -- -- -- -- -- -- -- -- -- -- -- 39°
SPRAY COND
DRY COND
LIVESTOCK COLDSTRESS

Click on individual weather variable above in left-hand column (ie., TEMP, RH, QPF 12HR) to view state forecast maps






NWS 48 Hr. Forecast Maps,

Regional Hourly Observations For WHITLEY County, Kentucky
Issued at 200 AM EST THU DEC 01 2022
...EASTERN KENTUCKY...
  
CITY           SKY/WX    TMP DP  RH WIND       PRES   REMARKS
JACKSON        CLEAR     29  17  61 VRB7      30.39R WCI  22          
LONDON         CLEAR     27  19  72 CALM      30.41R                  
SOMERSET*      CLEAR     27  23  86 CALM      30.43R                  
MONTICELLO*    CLEAR     28  19  69 NW3       30.47R                  
WILLIAMSBURG*  FAIR      27  18  69 SW3       30.44R                  
MIDDLESBORO*   CLEAR     32  17  53 NW7       30.44R WCI  25          
HARLAN APT*    SUNNY     32  20  61 W5        30.40R WCI  27          
PIKE CO APT*   FAIR      29  17  60 W6        30.38R WCI  23          
BIG SANDY APT* SUNNY     31  18  59 NW5       30.39R WCI  26          
MOREHEAD APT*  SUNNY     28  16  59 VRB5      30.41R WCI  23          
ASHLAND*       CLEAR     29  19  66 SW6       30.40R WCI  23          


Current NOWCAST not available:
Nowcasts are not issued routinely during fair weather. Only when
precipitation or other significant weather is occuring in this county will these
forecasts be issued. Currently, there is no short term forecast in effect.


Fire Weather Forecast For WHITLEY County, KY
Provided by the National Weather Service:

Issued at: Thu Dec 1 02:05:01 EST 2022

429 PM EST Wed Nov 30 2022

                      Tonight      Thu          Thu Night    Fri          

Cloud Cover           Clear        Mclear       Mclear       Pcldy        
Chance precip (%)     0            0            0            0            
Precip type           None         None         None         None         
Temp (24H TREND)      23 (-27)     44 (-11)     27           56           
Rh % (24H TREND)      84 (-15)     34 (-6)      96           27           
20ftwnd-AM(mph)                    Lgt/Var                   S 3-7 G19    
20ftwnd-PM(mph)       W 3-7 G15    Lgt/Var      Lgt/Var      S 6-10 G23   
Precip duration                                                           
Precip begin                                                              
Precip end                                                                
Precip amount         0.00         0.00         0.00         0.00         
LAL                   1            1            1            1            
Haines Index (MID)                 4                         5            
Mixing hgt(ft-AGL)                 1700                      400          
Transport wnd (mph)                E  2                      S 14         
Vent rate (kt-ft)                  3400                      4800         
ADI Early             7            7            3            11           
ADI Late              9            7            4            13           
Max LVORI Early       3            3            3            3            
Max LVORI Late        3            2            4            2            

Remarks...ADI is Atmospheric Dispersion Index by Lavdas.        
LVORI is Low Visibility Occurrence Risk Index.

SPC's Fire Weather Web Tool (Excellent!), SPC's Fire Weather Outlooks, NWS Fire Weather WEB, Fire Danger Class Map,
Keetch-Byram Drought Index, ROMAN Web, Haines Index ,
WFAS's 10-hr Dead Fuel Moist., WFAS's 100-hr Dead Fuel Moist., Probablity of Ignition, Visual blackness Map, Palmer Drought Index, HPC's Rainfall Forecast Maps


Hazardous Weather Outlook For WHITLEY County, Kentucky
108 PM EST Wed Nov 30 2022

 DAY ONE  This afternoon and tonight.

No hazardous weather is expected at this time.

 DAYS TWO THROUGH SEVEN  Thursday through Tuesday.

Heavy rain is expected to impact portions of eastern Kentucky
Sunday night through Tuesday. 

 SPOTTER INFORMATION STATEMENT  

Spotter activation is not expected at this time.

Latest WHITLEY County, Kentucky Watches, Warnings and Advisories.
Additional Drought Info.: UKAWC Drought Page, Kentucky Drought Watch


7-Day Forecast For WHITLEY County, KY

TONIGHT
Clear. Much colder with lows in the lower 20s. Northwest winds around 5 mph.

THURSDAY
Partly cloudy in the morning, then clearing. Highs in the mid 40s. Light and variable winds, becoming northeast around 5 mph in the afternoon.

THURSDAY NIGHT
Clear in the evening, then becoming partly cloudy. Cold with lows in the lower 30s. Southeast winds around 5 mph.

FRIDAY
Mostly sunny in the morning, then becoming partly cloudy. Not as cool with highs in the mid 50s. South winds 5 to 10 mph.

FRIDAY NIGHT
Cloudy. A slight chance of showers in the evening, then showers overnight. Not as cool with lows in the upper 40s. Temperature rising into the lower 50s after midnight. South winds 10 to 15 mph with gusts up to 25 mph. Chance of rain 80 percent.

SATURDAY
Cloudy with showers likely in the morning, then partly cloudy with a slight chance of showers in the afternoon. Highs in the mid 50s. Chance of rain 60 percent.

SATURDAY NIGHT
Partly cloudy in the evening, then becoming mostly cloudy. Much colder with lows in the upper 20s.

SUNDAY
Mostly cloudy. A slight chance of rain in the afternoon. Highs around 50. Chance of rain 20 percent.

SUNDAY NIGHT
Cloudy with a 40 percent chance of rain. Lows in the upper 30s.

MONDAY
Cloudy with a 50 percent chance of rain. Highs in the mid 50s.

MONDAY NIGHT
Rain likely. Not as cool with lows in the upper 40s. Chance of rain 60 percent.

TUESDAY
Rain likely. Rain may be heavy at times in the morning. Highs in the upper 50s. Chance of rain 60 percent.

TUESDAY NIGHT
Cloudy with a 50 percent chance of rain. Lows in the mid 40s.

WEDNESDAY
Mostly cloudy in the morning, then becoming partly cloudy. A 40 percent chance of rain. Highs in the lower 50s.

Ag Weather Center, Department of Biosystems & Agricultural Engineering, University of Kentucky